TimeCDT,TemperatureF,Dew PointF,Humidity,Sea Level PressureIn,VisibilityMPH,Wind Direction,Wind SpeedMPH,Gust SpeedMPH,PrecipitationIn,Events,Conditions,WindDirDegrees,DateUTC
12:15 AM,36.1,30.7,81,30.00,10.0,North,6.9,-,N/A,,Clear,10,2012-11-02 05:15:00
12:35 AM,36.1,30.2,79,30.00,10.0,NNE,5.8,-,N/A,,Clear,20,2012-11-02 05:35:00
12:55 AM,35.6,30.0,80,30.01,10.0,NNE,5.8,-,N/A,,Clear,20,2012-11-02 05:55:00
1:15 AM,34.7,29.5,81,30.01,10.0,North,6.9,-,N/A,,Clear,10,2012-11-02 06:15:00
1:35 AM,35.2,29.7,80,30.01,10.0,NNE,8.1,-,N/A,,Clear,20,2012-11-02 06:35:00
1:55 AM,35.1,29.3,80,30.01,10.0,NNE,8.1,-,N/A,,Clear,20,2012-11-02 06:55:00
2:15 AM,34.5,28.8,79,30.02,10.0,North,6.9,-,N/A,,Clear,10,2012-11-02 07:15:00
2:35 AM,33.3,28.4,82,30.02,10.0,NNE,6.9,-,N/A,,Clear,20,2012-11-02 07:35:00
2:55 AM,33.4,28.4,82,30.02,10.0,NNE,5.8,-,N/A,,Clear,30,2012-11-02 07:55:00
3:15 AM,32.5,27.9,83,30.03,10.0,NNE,6.9,-,N/A,,Clear,20,2012-11-02 08:15:00
3:35 AM,32.4,28.2,85,30.03,10.0,North,5.8,-,N/A,,Clear,10,2012-11-02 08:35:00
3:55 AM,32.5,28.0,83,30.03,10.0,North,5.8,-,N/A,,Clear,10,2012-11-02 08:55:00
4:15 AM,32.0,27.7,84,30.04,10.0,North,5.8,-,N/A,,Clear,10,2012-11-02 09:15:00
4:35 AM,31.8,27.3,83,30.04,10.0,NNE,6.9,-,N/A,,Clear,20,2012-11-02 09:35:00
4:55 AM,32.0,27.5,83,30.04,10.0,NNE,5.8,-,N/A,,Clear,20,2012-11-02 09:55:00
5:15 AM,32.0,27.5,83,30.04,10.0,NE,5.8,-,N/A,,Clear,40,2012-11-02 10:15:00
5:35 AM,32.0,27.5,83,30.04,10.0,NE,6.9,-,N/A,,Clear,50,2012-11-02 10:35:00
5:55 AM,32.0,27.9,85,30.04,10.0,ENE,8.1,-,N/A,,Clear,60,2012-11-02 10:55:00
6:15 AM,32.0,27.9,85,30.04,10.0,NE,6.9,-,N/A,,Clear,50,2012-11-02 11:15:00
6:35 AM,32.0,28.0,85,30.04,10.0,ENE,6.9,-,N/A,,Clear,60,2012-11-02 11:35:00
6:55 AM,32.2,28.0,85,30.05,10.0,ENE,5.8,-,N/A,,Clear,60,2012-11-02 11:55:00
7:15 AM,32.0,28.0,85,30.05,10.0,ENE,5.8,-,N/A,,Scattered Clouds,60,2012-11-02 12:15:00
7:35 AM,32.0,28.0,85,30.06,10.0,ENE,6.9,-,N/A,,Overcast,60,2012-11-02 12:35:00
7:55 AM,32.0,28.2,86,30.06,10.0,ENE,9.2,-,N/A,,Scattered Clouds,60,2012-11-02 12:55:00
8:15 AM,32.4,28.4,85,30.06,7.0,ENE,5.8,-,N/A,,Scattered Clouds,70,2012-11-02 13:15:00
8:35 AM,33.8,29.3,84,30.08,10.0,Calm,Calm,-,N/A,,Mostly Cloudy,0,2012-11-02 13:35:00
8:55 AM,35.8,30.0,80,30.09,10.0,East,5.8,-,N/A,,Overcast,90,2012-11-02 13:55:00
9:15 AM,36.5,30.0,77,30.10,10.0,East,9.2,-,N/A,,Mostly Cloudy,100,2012-11-02 14:15:00
9:35 AM,37.9,30.7,75,30.10,10.0,East,9.2,-,N/A,,Clear,90,2012-11-02 14:35:00
9:55 AM,39.7,31.1,71,30.10,10.0,East,10.4,-,N/A,,Clear,90,2012-11-02 14:55:00
10:15 AM,41.7,31.1,66,30.10,10.0,ESE,16.1,-,N/A,,Clear,110,2012-11-02 15:15:00
10:35 AM,42.6,30.9,63,30.10,10.0,East,12.7,-,N/A,,Clear,100,2012-11-02 15:35:00
10:55 AM,44.1,30.6,59,30.10,10.0,ESE,12.7,-,N/A,,Clear,120,2012-11-02 15:55:00
11:15 AM,44.8,29.7,55,30.09,10.0,ESE,13.8,17.3,N/A,,Clear,120,2012-11-02 16:15:00
11:35 AM,45.5,29.7,54,30.10,10.0,SE,12.7,-,N/A,,Clear,130,2012-11-02 16:35:00
11:55 AM,46.4,29.7,52,30.10,10.0,ESE,11.5,-,N/A,,Clear,110,2012-11-02 16:55:00
12:15 PM,46.4,28.8,50,30.09,10.0,ESE,12.7,17.3,N/A,,Clear,110,2012-11-02 17:15:00
12:35 PM,46.8,28.4,49,30.08,10.0,ESE,12.7,-,N/A,,Clear,120,2012-11-02 17:35:00
12:55 PM,47.3,28.8,49,30.07,10.0,ESE,12.7,17.3,N/A,,Clear,120,2012-11-02 17:55:00
1:15 PM,47.7,28.6,48,30.07,10.0,ESE,12.7,18.4,N/A,,Clear,120,2012-11-02 18:15:00
1:35 PM,47.3,28.0,47,30.05,10.0,ESE,13.8,17.3,N/A,,Clear,120,2012-11-02 18:35:00
1:55 PM,48.2,28.4,46,30.05,10.0,East,13.8,-,N/A,,Clear,100,2012-11-02 18:55:00
2:15 PM,49.1,28.4,45,30.05,10.0,ESE,12.7,-,N/A,,Clear,110,2012-11-02 19:15:00
2:35 PM,49.1,28.2,44,30.05,10.0,ESE,10.4,17.3,N/A,,Clear,110,2012-11-02 19:35:00
2:55 PM,49.1,28.2,44,30.04,10.0,ESE,13.8,17.3,N/A,,Clear,110,2012-11-02 19:55:00
3:15 PM,48.9,28.2,45,30.03,10.0,ESE,9.2,-,N/A,,Clear,110,2012-11-02 20:15:00
3:35 PM,48.9,27.9,44,30.03,10.0,ESE,12.7,-,N/A,,Clear,110,2012-11-02 20:35:00
3:55 PM,48.6,27.3,44,30.05,10.0,East,13.8,-,N/A,,Clear,90,2012-11-02 20:55:00
4:15 PM,48.6,27.1,43,30.05,10.0,East,11.5,-,N/A,,Clear,90,2012-11-02 21:15:00
4:35 PM,48.4,27.5,44,30.05,10.0,East,10.4,-,N/A,,Clear,100,2012-11-02 21:35:00
4:55 PM,48.0,27.5,45,30.03,10.0,East,12.7,-,N/A,,Clear,90,2012-11-02 21:55:00
5:15 PM,47.5,28.0,47,30.03,10.0,East,10.4,-,N/A,,Clear,100,2012-11-02 22:15:00
5:35 PM,47.3,28.2,48,30.04,10.0,East,8.1,-,N/A,,Clear,100,2012-11-02 22:35:00
5:55 PM,46.6,28.9,50,30.03,10.0,East,11.5,-,N/A,,Clear,90,2012-11-02 22:55:00
6:15 PM,46.2,29.5,52,30.04,10.0,East,5.8,-,N/A,,Clear,90,2012-11-02 23:15:00
6:35 PM,45.5,29.7,54,30.03,10.0,East,8.1,-,N/A,,Clear,90,2012-11-02 23:35:00
6:55 PM,44.4,29.3,55,30.04,10.0,East,5.8,-,N/A,,Clear,90,2012-11-02 23:55:00
7:15 PM,43.0,29.7,59,30.05,10.0,East,8.1,-,N/A,,Clear,80,2012-11-03 00:15:00
7:35 PM,42.1,29.3,61,30.04,10.0,ENE,8.1,-,N/A,,Clear,70,2012-11-03 00:35:00
7:55 PM,41.0,29.3,63,30.04,10.0,East,6.9,-,N/A,,Clear,80,2012-11-03 00:55:00
8:15 PM,41.4,29.3,62,30.05,10.0,East,6.9,-,N/A,,Clear,90,2012-11-03 01:15:00
8:35 PM,41.9,30.0,63,30.05,10.0,East,6.9,-,N/A,,Clear,90,2012-11-03 01:35:00
8:55 PM,41.0,30.2,65,30.05,10.0,East,6.9,-,N/A,,Clear,80,2012-11-03 01:55:00
9:15 PM,41.0,30.6,66,30.06,10.0,ENE,8.1,-,N/A,,Clear,60,2012-11-03 02:15:00
9:35 PM,41.0,30.9,67,30.07,10.0,NE,9.2,-,N/A,,Clear,50,2012-11-03 02:35:00
9:55 PM,40.5,30.7,68,30.08,10.0,ENE,9.2,-,N/A,,Clear,70,2012-11-03 02:55:00
10:15 PM,39.4,30.6,71,30.08,10.0,ENE,9.2,-,N/A,,Clear,70,2012-11-03 03:15:00
10:35 PM,38.8,30.6,72,30.08,10.0,ENE,9.2,-,N/A,,Clear,70,2012-11-03 03:35:00
10:55 PM,39.9,31.1,71,30.08,10.0,ENE,11.5,-,N/A,,Mostly Cloudy,60,2012-11-03 03:55:00
11:15 PM,41.4,30.9,66,30.08,10.0,East,10.4,-,N/A,,Overcast,90,2012-11-03 04:15:00
11:35 PM,42.1,30.2,63,30.08,10.0,East,10.4,-,N/A,,Overcast,80,2012-11-03 04:35:00
11:55 PM,42.4,29.5,60,30.07,10.0,East,11.5,-,N/A,,Overcast,90,2012-11-03 04:55:00